SCP
11 14 15 14 15 18 22 23 23 21 19 20 21 21 22 22 22 22 23 24 25 26 25 25 25 27 26 23 19 17 15 14 12 10 9 9 9 9 6 3 3 4 5
10 12 13 12 13 15 18 21 21 19 18 18 19 19 20 21 21 21 21 22 23 23 22 21 22 23 23 22 19 16 14 12 11 9 8 8 8 9 6 3 3 3 4
9 10 10 10 10 11 13 16 17 17 16 15 16 16 17 18 19 19 19 20 20 19 17 17 17 18 19 19 18 15 12 10 8 7 6 6 7 8 6 4 2 2 2
7 7 7 8 8 8 10 12 14 15 14 14 13 13 14 14 15 16 16 17 17 16 14 14 14 15 15 15 15 14 11 9 7 6 5 5 5 6 6 4 2 2 2
5 5 6 7 7 7 9 10 11 12 12 11 11 11 11 11 11 12 13 14 15 14 13 13 13 13 14 14 13 13 11 9 7 6 6 5 5 5 5 4 2 1 1
3 4 5 6 6 6 7 8 9 9 9 9 8 8 8 8 8 9 10 12 13 14 14 14 14 13 13 13 13 12 11 9 8 8 7 6 5 4 4 4 3 2 2
2 3 5 5 4 4 5 6 6 7 7 7 6 6 6 6 7 7 9 11 13 14 15 15 15 13 12 12 12 12 11 9 9 8 8 6 5 5 5 5 5 5 5
2 3 4 4 3 3 3 4 4 5 6 5 4 4 4 6 8 8 9 10 12 14 15 15 14 12 12 12 13 13 11 9 8 8 7 6 5 5 6 7 8 7 8
3 4 4 4 3 3 3 3 3 3 4 5 4 3 5 7 10 10 9 9 11 13 14 14 13 12 12 14 15 14 12 10 9 8 7 6 5 6 8 9 9 9 9
5 4 4 4 4 4 4 4 3 3 5 6 6 6 7 9 9 9 8 9 11 13 14 14 14 13 15 17 18 16 13 11 10 9 7 6 6 8 9 10 10 11 11
6 5 4 4 4 4 5 5 5 5 7 8 9 9 10 9 8 7 7 10 12 14 15 15 15 15 17 19 19 17 13 11 10 9 8 7 8 9 9 10 11 13 13
5 5 4 4 4 4 5 6 6 7 9 9 9 10 10 8 6 5 7 9 12 14 15 14 15 15 17 19 18 15 12 10 10 9 8 9 10 10 10 10 12 14 14
5 5 5 5 5 5 6 6 7 8 9 9 8 7 7 6 5 5 6 7 9 11 12 13 14 14 15 17 16 13 10 9 8 8 8 10 11 12 12 12 13 14 14
5 5 6 6 6 6 6 7 8 9 8 7 6 6 6 5 5 4 5 5 6 8 10 11 12 12 12 13 13 10 8 7 7 7 8 10 12 13 14 16 17 17 16
6 6 7 8 8 7 7 7 7 8 7 6 6 6 6 5 5 4 4 4 5 6 8 9 10 10 10 10 9 8 7 7 7 8 9 11 13 15 17 21 22 22 21
6 7 7 8 8 8 7 7 7 7 7 7 7 7 7 7 6 6 5 5 5 6 7 8 8 8 8 8 7 7 8 8 8 9 10 11 14 17 20 24 27 26 25
8 8 8 9 10 9 8 8 8 9 9 9 9 9 9 8 7 7 6 6 6 6 6 7 7 8 8 8 8 8 9 9 9 9 10 12 15 17 21 25 29 29 28
12 12 12 13 14 12 11 11 13 13 13 11 11 11 10 9 7 7 6 6 6 5 6 6 8 9 9 8 8 8 9 9 9 9 11 13 16 18 20 23 28 30 30
17 18 19 20 20 18 15 14 16 18 18 17 16 14 13 10 7 5 6 7 7 7 7 8 9 9 9 8 7 7 7 8 8 9 10 13 15 17 19 21 25 28 29
21 22 24 26 25 21 18 16 18 21 23 24 23 22 20 16 11 8 8 10 12 12 12 11 11 10 9 7 6 6 6 5 6 6 8 10 13 17 19 20 21 22 22
20 21 26 30 29 24 21 21 24 27 29 30 31 30 28 25 19 15 14 15 16 16 16 15 13 12 9 7 6 5 3 2 2 3 6 9 12 15 16 16 16 15 14
17 18 23 29 30 28 28 29 31 34 34 33 32 31 29 26 22 19 17 16 15 15 15 14 13 12 10 7 6 4 2 1 0 1 5 10 13 13 12 10 9 8 8
17 17 20 24 28 32 35 38 39 38 35 31 26 21 18 17 16 14 13 13 12 12 12 12 12 12 11 9 7 5 3 1 0 1 3 7 10 10 8 6 4 3 3
22 21 21 22 28 34 38 40 40 37 30 23 16 9 6 6 6 6 6 7 8 9 11 12 13 13 13 12 9 5 3 2 1 1 2 3 5 5 5 4 3 2 1
21 21 20 22 28 32 33 32 31 28 22 15 8 4 2 1 1 1 1 2 3 5 7 9 10 11 11 11 9 5 2 2 2 3 2 2 2 2 2 2 1 1 1
15 14 16 21 26 27 26 23 22 21 16 10 5 2 1 0 0 0 0 0 1 2 3 4 5 6 7 8 7 4 2 3 3 3 2 1 1 1 1 1 1 0 0
Wind_Speed
6 9 18 17 16 15 15 15 15 15 15 14 14 14 14 13 13 12 11 10 9 8 8 8 8 9 9 9 9 9 9 9 8 8 8 8 8 8 8 9 9 7 10
12 11 18 18 16 15 14 14 14 14 14 14 13 13 13 12 12 11 10 10 9 8 7 7 7 8 8 8 8 8 8 7 7 7 6 5 5 6 7 7 8 6 9
13 12 15 18 17 15 14 14 13 13 12 12 12 12 12 11 11 11 10 10 9 8 7 6 6 7 7 8 8 7 7 7 6 6 5 2 1 4 5 5 7 8 9
13 10 12 18 17 16 15 13 13 12 12 11 11 11 10 10 10 10 10 9 9 8 7 6 6 6 6 7 7 7 7 6 5 5 3 2 1 2 4 5 6 7 8
10 9 13 20 18 17 15 13 12 12 11 11 10 10 10 9 9 9 9 8 8 8 7 6 5 5 6 6 6 6 6 6 6 4 3 2 2 3 5 6 7 8 8
8 8 11 19 18 17 15 14 12 11 11 10 10 10 9 9 8 8 8 7 7 6 6 6 5 5 5 5 6 6 6 6 5 3 3 3 4 6 9 10 11 11 10
8 7 9 18 17 17 16 15 13 12 11 10 10 9 8 8 8 7 7 6 6 6 5 5 5 5 6 6 6 6 6 7 4 4 4 4 5 8 11 13 14 14 13
9 7 8 17 17 16 16 15 14 13 12 11 10 9 8 7 7 7 6 6 6 6 6 6 6 6 6 7 7 7 7 7 6 5 5 5 8 10 12 13 14 15 14
7 6 6 8 12 15 15 14 14 12 11 10 10 9 8 8 7 7 6 6 6 6 7 7 7 7 7 7 8 8 8 9 7 4 6 5 8 11 13 12 13 15 15
5 5 5 5 6 6 8 13 13 12 11 10 10 9 9 8 8 8 6 7 8 8 8 8 9 9 8 8 9 9 10 9 6 6 5 6 11 13 13 12 11 14 15
8 5 4 5 5 5 5 8 10 11 10 10 8 10 8 3 3 4 6 8 10 10 10 11 11 10 10 9 11 11 10 4 6 5 5 10 13 13 13 13 12 13 15
13 10 6 5 5 5 5 4 3 3 3 4 3 3 2 2 3 4 5 10 12 12 12 13 12 11 9 5 8 10 5 6 6 6 7 13 14 14 14 13 13 13 14
12 11 9 7 5 5 4 3 2 2 2 3 4 3 2 2 2 3 3 5 6 9 6 7 7 5 5 5 5 6 7 6 5 5 7 13 14 15 14 12 12 12 13
10 11 9 8 6 6 4 3 3 3 3 3 4 4 3 2 3 3 3 4 4 4 5 5 4 6 7 7 8 8 8 6 6 5 7 14 14 15 14 12 11 10 10
11 11 9 9 9 7 5 3 4 4 4 4 4 4 5 4 5 4 4 4 5 5 5 5 5 6 7 7 7 8 9 9 9 8 6 13 15 14 15 13 11 10 10
11 11 9 10 9 7 7 5 4 4 4 4 4 6 7 6 6 5 5 5 6 6 6 5 6 5 5 6 8 8 9 9 9 9 8 9 14 14 14 14 12 11 11
11 10 10 10 9 8 8 8 6 5 5 5 6 7 8 8 7 7 6 6 6 5 6 5 6 5 5 6 8 8 8 8 9 9 9 7 8 11 13 13 12 12 11
10 10 10 10 10 10 9 8 6 5 5 5 5 5 8 9 8 6 6 7 6 4 4 5 5 4 5 6 6 7 6 7 9 9 8 7 7 7 9 12 12 12 12
12 11 12 11 11 11 10 7 6 5 5 4 4 4 6 7 8 6 6 6 5 4 4 5 4 4 5 6 6 6 6 7 8 8 8 9 8 7 7 8 11 11 12
11 11 11 11 10 10 7 5 4 4 4 3 3 3 4 4 5 5 4 5 4 3 4 4 6 5 5 5 7 7 6 7 7 8 9 8 7 8 8 7 6 7 11
8 9 10 9 9 7 5 5 5 4 3 3 2 2 2 2 2 2 2 3 2 3 5 5 4 6 5 4 4 5 6 7 8 7 7 7 8 8 7 7 5 5 4
3 3 3 5 6 6 5 4 3 3 2 2 1 2 2 2 2 1 1 1 2 3 4 5 5 4 4 4 4 4 4 4 4 5 4 5 6 5 6 6 6 5 5
3 3 3 3 3 3 3 2 2 2 2 2 1 1 2 3 3 3 2 2 2 2 4 5 5 7 7 4 5 5 4 5 3 3 3 3 3 3 4 4 5 5 5
3 2 2 2 3 3 3 3 4 3 3 3 2 2 1 2 2 2 3 3 3 3 4 5 5 6 8 7 5 6 7 5 4 4 3 2 3 3 3 3 4 4 4
2 1 0 1 2 3 3 2 3 3 3 3 3 3 1 1 1 2 3 3 3 3 4 6 6 6 6 7 6 5 6 6 7 6 5 3 2 2 3 3 3 3 4
3 3 1 1 1 1 3 3 3 4 5 4 4 3 2 1 1 2 3 3 3 3 4 5 5 6 5 7 6 5 5 4 5 6 7 5 4 3 3 3 3 3 3
Wind_Direction
159 159 157 153 148 141 135 131 127 126 125 125 126 128 132 136 140 143 145 145 142 137 126 114 109 108 109 112 115 118 122 124 123 122 122 124 126 126 126 123 118 114 115
151 157 158 155 151 147 141 137 134 134 132 131 131 131 134 138 142 146 147 149 148 146 138 127 121 120 121 123 123 124 127 131 134 132 125 122 134 142 141 136 134 134 128
147 156 158 157 155 153 149 146 144 142 140 137 136 134 136 140 146 150 152 154 154 151 147 142 138 137 137 138 139 139 140 142 146 146 130 89 107 157 169 158 157 151 144
148 153 157 160 160 160 158 156 154 151 147 144 141 139 140 144 148 152 154 155 157 156 156 155 155 156 158 158 159 159 160 161 167 167 150 176 229 187 197 191 184 177 167
146 150 163 162 165 166 166 166 165 161 157 153 150 148 149 151 156 158 159 161 164 165 168 171 174 175 178 180 180 181 183 185 195 196 189 214 238 243 223 215 211 207 194
144 150 168 165 168 170 172 173 174 172 168 165 163 160 159 160 163 168 171 175 180 185 190 195 201 203 202 203 205 209 212 215 220 225 228 237 236 243 241 233 223 219 211
147 155 171 168 171 174 176 178 180 180 179 177 174 173 171 171 172 176 181 186 194 205 214 221 226 226 225 226 229 234 238 242 232 225 238 246 249 251 254 248 230 223 218
153 156 168 174 176 178 180 182 184 185 184 183 183 183 185 187 189 192 196 201 207 216 224 230 236 240 239 241 243 247 250 255 255 235 234 242 253 259 264 261 236 225 222
152 154 167 173 180 183 185 186 188 189 188 188 188 191 196 201 205 211 216 224 228 233 237 240 244 248 251 253 255 257 260 262 260 244 249 246 255 264 271 272 245 228 225
156 164 169 166 169 176 186 193 193 195 195 195 196 199 205 212 218 227 231 241 247 249 252 255 257 259 261 261 264 266 268 272 266 258 254 255 261 266 271 273 256 235 229
179 182 178 171 166 162 172 193 195 200 203 204 208 212 212 214 232 252 252 252 257 260 261 261 262 263 264 264 265 268 273 261 261 263 258 259 262 265 269 269 260 244 236
190 191 186 182 171 163 177 176 173 185 193 202 202 224 210 191 217 240 261 264 266 269 270 267 262 263 265 260 264 268 263 260 263 264 262 264 265 265 265 263 259 250 242
188 190 191 187 176 171 172 160 165 170 178 198 206 215 218 214 230 247 256 269 274 279 278 275 273 260 255 255 257 258 260 263 261 262 264 269 269 270 270 269 264 256 248
182 192 190 185 180 182 177 174 175 181 190 201 209 210 210 224 234 240 245 253 259 261 263 263 256 256 258 259 259 262 264 261 260 259 263 270 270 270 274 275 268 259 250
188 191 189 187 188 184 182 188 189 197 204 207 210 214 212 223 237 240 247 249 253 252 252 253 251 255 260 265 263 262 264 263 262 259 261 268 270 268 270 271 264 255 249
192 193 189 192 193 188 192 198 200 201 208 212 221 225 219 224 231 235 245 248 251 246 244 243 245 252 261 266 269 265 264 265 264 261 258 265 266 265 266 266 260 252 247
193 190 189 195 192 193 201 206 209 207 207 218 229 228 225 225 228 229 238 246 248 241 239 242 249 252 260 262 265 266 265 263 263 262 260 256 259 260 261 259 253 247 244
187 187 193 197 193 197 202 205 210 211 210 221 228 229 229 228 227 226 232 244 244 235 230 234 238 244 252 257 264 269 268 268 268 265 261 255 249 251 253 252 250 246 244
191 191 194 196 194 199 203 205 206 207 215 222 223 224 230 231 227 221 232 241 237 231 231 238 235 229 247 253 259 266 265 265 267 269 265 260 249 243 241 244 244 246 247
196 196 199 199 199 196 196 193 191 191 203 207 208 216 221 226 221 213 226 239 233 233 240 236 244 240 242 252 265 269 265 265 265 263 264 263 254 245 239 234 231 238 243
200 201 203 201 202 188 181 187 187 189 187 190 194 198 205 211 200 200 229 248 240 241 250 251 253 258 254 239 256 272 267 259 257 258 257 258 258 250 237 230 226 224 236
230 226 214 203 200 195 194 186 175 159 162 142 128 95 62 49 41 48 328 291 282 275 275 266 255 261 258 219 231 265 287 295 269 254 253 253 258 254 245 239 229 226 232
276 233 213 200 193 191 189 148 123 112 106 107 91 54 23 22 24 16 358 340 316 293 284 280 264 260 267 252 220 232 245 250 289 291 267 260 264 261 258 251 244 236 233
285 268 205 173 161 160 158 176 182 182 181 173 162 145 64 25 23 19 10 1 339 321 303 294 280 264 265 268 246 229 232 227 234 279 286 273 273 263 266 266 267 266 250
1 13 51 143 151 149 141 178 206 185 172 148 144 134 131 72 41 24 19 8 357 339 322 311 303 285 268 266 259 245 240 237 230 237 266 275 282 268 266 268 269 274 270
12 18 28 163 130 124 135 153 185 167 150 148 145 144 147 118 37 18 18 12 3 351 340 331 320 310 296 280 271 256 241 234 224 223 238 250 261 271 272 269 266 273 276